Погода Малые Дербеты

Погода Малые Дербеты : погода сейчас, прогноз погоды и архив. Всё, что Вы хотите узнать о погоде Малые Дербеты!

Хотите узнать прогноз погоды Малые Дербеты? Тогда Вам сюда: Погода Малые Дербеты

Поиск расширенной информации на нашем сайте:

Другие новости

Новости СМИ2

Главная страница сайта

Новости сайта

03.07.2017

Напоминаем, что на нашем специализированном сайте Метеоцентр.Азия вы можете получить высокодетализированные автоматические прогнозы погоды по пунктам России, СНГ и мира в авиационном формате (включающие направление и скорость ветра, видимость, явления погоды, количество и форму облачности, нижнюю и верхнюю границу облачности).


Погода Малые Дербеты - сегодня

Время (UTC), дата Ветер
(°,м/с) 
Видим.   Явления Облачность Т
(°С)
Тd
(°С)
f(%) Тe
(°С)
Pmin
(гПа)
dP
(гПа)
Po
(мм)
O2
(г/м3)
Тmin Tmax R s Состояние
почвы
12 20.10.17 350 (С) 20000 м    9/9 500 м 
[Sc]
+14.7 +10.2 74 +16  1018.1  0.1  763  290           
15 20.10.17 тихо ()   20000 м    9/0 средняя 
[Ac As]
+13.5 +9.4 76 +14  1018.6  0.5  763  291    +15       
18 20.10.17 040 (СВ) 20000 м    9/0 средняя 
[Ac As]
+12.9 +6.4 65 +13  1018.9  0.3  763  293           
21 20.10.17 020 (С) 20000 м    9/9 570 м 
[Sc]
+10.1 +3.8 65 +10  1019  0.1  763  296           
00 21.10.17 010 (С) 20000 м    9/9 500 м 
[Sc]
+8.8 +5.1 78 +8  1018.8  -0.2  763  297           
03 21.10.17 020 (С) 20000 м    9/9 540 м 
[Sc]
+7.4 +3.6 77 +7  1018.6  0.1  763  299  +7.4         
06 21.10.17 030 (СВ) 20000 м  {ливн. осадки}  9/0 средняя 
[Ac As]
+7.7 +4 77 +8  1019.1  0.4  764  299  +6.9         
09 21.10.17 060 (СВ) 20000 м    9/0 средняя 
[Ac As]
+10.1 +4.3 67 +10  1018.2  -0.9  763  296           
12 21.10.17 030 (СВ) 20000 м    9/0 средняя 
[Ac As]
+9.2 +1.7 59 +9  1017.2  -1  762  297           
15 21.10.17 050 (СВ) 20000 м    10/10 480 м 
[St]
+8.2 +2.6 68 +8  1017.1  0.1  762  298    +10.1       
18 21.10.17 070 (В) 20000 м    10/10 480 м 
[St]
+7.5 +3 73 +8  1016.6  -0.4  762  298           
21 21.10.17 030 (СВ) 20000 м    10/10 450 м 
[St]
+7 +3.9 81 +8  1016.1  -0.6  761  298           
00 22.10.17 060 (СВ) 20000 м    10/10 480 м 
[St]
+6.5 +4 84 +6  1014.5  -1.6  760  299           
03 22.10.17 060 (СВ) 4000 м  слаб. ливневой дождь  9/4 600 м кучево-дожд., средняя 
[Cb cap|Ac As]
+5.9 +4.1 88 +6  1013.3  -1.2  759  299  +5.9    0.5     
06 22.10.17 040 (СВ) 1000 м  слаб. ливневой дождь  10/10 450 м кучево-дожд. 
[Cb cap]
+5.4 +5.1 98 +4  1012.6  -0.7  759  299  +5.2         
09 22.10.17 040 (СВ) 1000 м  слаб. ливневой дождь  10/10 450 м кучево-дожд. 
[Cb cap]
+5.2 +4.9 98 +3  1011.5  -1.2  758  299           
12 22.10.17 030 (СВ) 4{10}  4000 м  слаб. ливневой дождь  10/10 500 м кучево-дожд. 
[Cb cap]
+5 +3.7 91 +3  1011.1  -0.3  758  299           
15 22.10.17 360 (С) 4000 м  слаб. ливневой дождь  10/10 300 м кучево-дожд. 
[Cb cap]
+4.2 +2.9 91 +3  1012.7  1.6  759  301    +5.9  14     
18 22.10.17 010 (С) 20000 м  {ливн. осадки}  10/10 450 м 
[St]
+3.5 +2.1 91 +3  1013.9  1.2  760  302           
21 22.10.17 320 (СЗ) 20000 м    ясно 
+2.5 +1 90 +2  1015.4  1.4  761  304           
00 23.10.17 290 (З) 20000 м    9/9 500 м 
[Sc]
+2.2 +1.1 92 +3  1017.3  1.9  762  304           
03 23.10.17 230 (ЮЗ) 20000 м    9/9 500 м 
[Sc]
+3 +1.6 91 +4  1019  1.7  763  304  +1.6    0.3     
06 23.10.17 300 (СЗ) 20000 м    10/10 500 м 
[Sc]
+4.7 +2.4 85 +4  1021.5  2.5  765  303           
09 23.10.17 320 (СЗ) 20000 м    9/5 600 м средняя 
[Cu med, cong|Ac und]
+5.3 +1.2 75 +4  1022.6  1.1  766  303           
12 23.10.17 340 (С) 20000 м    9/0 средняя 
[Ac und]
+6 -0.1 65 +6  1022.9  0.2  766  302           
Время (UTC), дата Ветер
(°,м/с) 
Видим.   Явления Облачность Т
(°С)
Тd
(°С)
f(%) Тe
(°С)
Pmin
(гПа)
dP
(гПа)
Po
(мм)
O2
(г/м3)
Тmin Tmax R s Состояние
почвы

Для получения пояснительной информации подведите курсор к названию столбца.

ПОГОДА Малые Дербеты - архив

Всё, что Вы хотите узнать о погоде Малые Дербеты - удобно и подробно!

Выберите нужную дату (начиная с 1 января 2015* года) и нажмите кнопку "Найти".
Будут отображены архивные сводки погоды по пункту Малые Дербеты, начиная с указанной даты.


Отображать данные в формате CSV (для использования в таблицах Excel)


Внимание! Наш архив погоды предназначен исключительно для личного некоммерческого использования в познавательных целях. Если Вам необходимы официальные справки о состоянии погоды (для производственных, юридических, коммерческих и т.п. целей), обращайтесь в органы Росгидромета.

*Примечание: данная дата относится к архиву по метеостанциям СССР (Россия, СНГ, Балтия).
Архив по метеостанциям Зарубежной Европы и Азии (кроме Китая) хранится 10 дней, по другим регионам земного шара (Китай, Африка, Америка, Австралия, Океания) - 1 день.

Малые Дербеты - район местоположения метеостанции


Название, широта, долгота, высота метеостанции:
Малые Дербеты 47.9°ш. 44.7°д. 9 м над ур. моря [Российская Федерация]

Дополнительная информация

В oтличие oт бoльшинства пoгoдных сайтoв мы публикуем пoдрoбную метеoинфoрмацию в детальнoм прoфессиoнальнoм фoрмате.

Характеристики температуры и влажнoсти вoздуха измеряются на высoте 2 м в тени вдали oт зданий и деревьев.
Скoрoсть ветра измеряется на высoте 10 м (на урoвне рoста челoвека скoрoсть ветра ниже в 1.5-2 раза). Если метеoстанция нахoдится в гoрoде или в лесу, тo скoрoсть ветра занижена на 2-4 м/с пo сравнению с oткрытым местoм. Скoрoсть ветра над акватoриями крупных рек и oзёр, а также на вершинах хoлмoв на 2-5 м/с выше, чем в oбычных услoвиях.
Атмoсфернoе давление в разных тoчках местнoсти мoжет значительнo oтличаться oт давления на метеoстанции, в зависимoсти oт услoвий рельефа (при пoдъёме на 10 м давление пoнижается примернo на 1 мм рт.ст.).